Voltar ao catálogo

EKRAN 20

AtivoComunicaçõesGEO
NORAD 22210·PAYLOAD·🇷🇺 Russia

Lançado Oct 30, 1992 de Baikonur Cosmodrome

Loading…

TLE

AtualizadoSource: Space-Track

Época: Sep 13, 2026, 17:37 UTC

1 22210U 92074A   26256.73444787 -.00000116  00000-0  00000-0 0  9993
2 22210  13.6368 343.6483 0005059 222.9818 124.1980  1.00327754 48251

Acompanhe EKRAN 20 em tempo real com AllMySat

Download on the App Store